TimeEDT,TemperatureF,Dew PointF,Humidity,Sea Level PressureIn,VisibilityMPH,Wind Direction,Wind SpeedMPH,Gust SpeedMPH,PrecipitationIn,Events,Conditions,WindDirDegrees,DateUTC
12:15 AM,66.2,62.6,88,30.05,10.0,Calm,Calm,-,N/A,,Clear,0,2013-08-01 04:15:00
12:35 AM,66.2,62.6,88,30.04,7.0,Calm,Calm,-,N/A,,Clear,0,2013-08-01 04:35:00
12:55 AM,66.2,62.6,88,30.04,10.0,Calm,Calm,-,N/A,,Clear,0,2013-08-01 04:55:00
1:15 AM,66.2,62.6,88,30.03,7.0,Calm,Calm,-,N/A,,Clear,0,2013-08-01 05:15:00
1:35 AM,66.2,62.6,88,30.03,10.0,Calm,Calm,-,N/A,,Clear,0,2013-08-01 05:35:00
1:55 AM,66.2,62.6,88,30.03,10.0,Calm,Calm,-,N/A,,Clear,0,2013-08-01 05:55:00
2:15 AM,66.2,62.6,88,30.02,10.0,Calm,Calm,-,N/A,,Scattered Clouds,0,2013-08-01 06:15:00
2:35 AM,66.2,62.6,88,30.01,7.0,Calm,Calm,-,N/A,,Mostly Cloudy,0,2013-08-01 06:35:00
2:55 AM,66.2,62.6,88,30.00,7.0,Calm,Calm,-,N/A,,Mostly Cloudy,0,2013-08-01 06:55:00
3:15 AM,68.0,64.4,88,30.00,10.0,Calm,Calm,-,N/A,,Overcast,0,2013-08-01 07:15:00
3:35 AM,68.0,64.4,88,29.99,10.0,Calm,Calm,-,N/A,,Overcast,0,2013-08-01 07:35:00
3:55 AM,68.0,64.4,88,29.98,10.0,Calm,Calm,-,N/A,,Mostly Cloudy,0,2013-08-01 07:55:00
4:15 AM,68.0,64.4,88,29.98,10.0,Calm,Calm,-,N/A,,Overcast,0,2013-08-01 08:15:00
4:35 AM,66.2,62.6,88,29.98,7.0,Calm,Calm,-,N/A,,Scattered Clouds,0,2013-08-01 08:35:00
4:55 AM,66.2,62.6,88,29.98,7.0,Calm,Calm,-,N/A,,Scattered Clouds,0,2013-08-01 08:55:00
5:15 AM,66.2,62.6,88,29.98,4.0,Calm,Calm,-,N/A,,Scattered Clouds,0,2013-08-01 09:15:00
5:35 AM,66.2,62.6,88,29.98,7.0,Calm,Calm,-,N/A,,Clear,0,2013-08-01 09:35:00
5:55 AM,66.2,62.6,88,29.98,5.0,Calm,Calm,-,N/A,,Clear,0,2013-08-01 09:55:00
6:15 AM,66.2,62.6,88,29.98,5.0,Calm,Calm,-,N/A,,Clear,0,2013-08-01 10:15:00
6:35 AM,66.2,64.4,94,29.98,7.0,Calm,Calm,-,N/A,,Scattered Clouds,0,2013-08-01 10:35:00
6:45 AM,64.4,62.6,94,29.98,10.0,Calm,Calm,-,N/A,,Mostly Cloudy,0,2013-08-01 10:45:00
7:45 AM,68.0,66.2,94,29.97,10.0,Calm,Calm,-,N/A,,Mostly Cloudy,0,2013-08-01 11:45:00
8:45 AM,69.8,66.2,88,29.97,10.0,Calm,Calm,-,N/A,,Mostly Cloudy,0,2013-08-01 12:45:00
9:10 AM,71.6,66.2,83,29.96,5.0,SW,8.1,-,N/A,,Haze,220,2013-08-01 13:10:00
9:45 AM,69.8,66.2,88,29.96,2.2,SSW,8.1,-,N/A,Rain,Light Rain,200,2013-08-01 13:45:00
10:45 AM,68.0,64.4,88,29.97,1.0,South,8.1,-,N/A,Rain,Rain,180,2013-08-01 14:45:00
11:45 AM,68.0,64.4,88,29.96,3.0,South,4.6,-,N/A,,Overcast,180,2013-08-01 15:45:00
12:45 PM,68.0,64.4,88,29.95,3.0,Calm,Calm,-,N/A,Rain,Rain,0,2013-08-01 16:45:00
1:04 PM,68.0,64.4,88,29.93,3.0,SSE,3.5,-,N/A,Rain,Light Rain,160,2013-08-01 17:04:00
2:45 PM,68.0,64.4,88,29.92,3.0,Calm,Calm,-,N/A,Rain,Light Rain,0,2013-08-01 18:45:00
3:45 PM,66.2,64.4,94,29.90,2.5,SSE,3.5,-,N/A,Rain,Light Rain,160,2013-08-01 19:45:00
4:45 PM,68.0,66.2,94,29.88,1.5,Calm,Calm,-,N/A,,Overcast,0,2013-08-01 20:45:00
5:45 PM,69.8,66.2,88,29.86,2.5,SE,5.8,-,N/A,,Overcast,130,2013-08-01 21:45:00
6:45 PM,69.8,66.2,88,29.86,1.5,Calm,Calm,-,N/A,,Overcast,0,2013-08-01 22:45:00
7:45 PM,69.8,68.0,94,29.87,1.5,Calm,Calm,-,N/A,,Overcast,0,2013-08-01 23:45:00
8:45 PM,69.8,68.0,94,29.86,2.0,Calm,Calm,-,N/A,Rain,Light Rain,0,2013-08-02 00:45:00
9:45 PM,69.8,68.0,94,29.87,5.0,WSW,5.8,-,N/A,,Overcast,240,2013-08-02 01:45:00
10:55 PM,71.6,68.0,88,29.85,7.0,Calm,Calm,-,N/A,,Overcast,0,2013-08-02 02:55:00
11:15 PM,71.6,68.0,88,29.85,4.0,Calm,Calm,-,N/A,,Overcast,0,2013-08-02 03:15:00
11:35 PM,71.6,68.0,88,29.85,5.0,Calm,Calm,-,N/A,,Overcast,0,2013-08-02 03:35:00
11:55 PM,69.8,68.0,94,29.85,2.5,Calm,Calm,-,N/A,,Overcast,0,2013-08-02 03:55:00